Stations météo

Publicité
Biscarosse, France (7503): Température de l'air & dewpoint: 14.07.2018 01:00:00 - 20.07.2018 01:00:00 (CEST)Biscarosse, France (7503): Température de l'air 5cm: 14.07.2018 01:00:00 - 20.07.2018 01:00:00 (CEST)Biscarosse, France (7503): Température de l'air -20cm & Température de l'air -100cm: 14.07.2018 01:00:00 - 20.07.2018 01:00:00 (CEST)Biscarosse, France (7503): Vitesse du vent & gusts: 14.07.2018 01:00:00 - 20.07.2018 01:00:00 (CEST)Biscarosse, France (7503): Direction du vent: 14.07.2018 01:00:00 - 20.07.2018 01:00:00 (CEST)Biscarosse, France (7503): reduced air pressure: 14.07.2018 01:00:00 - 20.07.2018 01:00:00 (CEST)Biscarosse, France (7503): visibility: 14.07.2018 01:00:00 - 20.07.2018 01:00:00 (CEST)Biscarosse, France (7503): Ensoleillement: 14.07.2018 01:00:00 - 20.07.2018 01:00:00 (CEST)Biscarosse, France (7503): Quantités de précipitations: 14.07.2018 01:00:00 - 20.07.2018 01:00:00 (CEST)
Date & Time tt [°C] td [°C] tt 5cm [°C] tt -20cm [°C] tt -100cm [°C] ff [km/h] ff [knt] fx [km/h] fx [knt] dd ppp [hPa] vv [km] sd [min] rr [mm]
20.07.2018 01:00:00 21,2 17,4 21,1 32,5 27,3 29 16 37 20 NNW 1018,0 20 0 0,0
20.07.2018 00:00:00 21,7 16,2 21,3 32,9 27,3 26 14 35 19 N 1017,7 20 0 0,0
19.07.2018 23:00:00 21,2 17,0 20,7 33,2 27,3 23 12 38 21 N 1016,9 19 0 0,0
19.07.2018 22:00:00 21,5 16,7 20,9 33,4 27,3 22 12 43 23 N 1016,2 20 19 0,0
19.07.2018 21:00:00 22,4 16,4 23,1 33,5 27,3 32 17 45 24 N 1015,8 20 32 0,0
19.07.2018 20:00:00 24,8 17,3 26,4 33,4 27,3 28 15 45 24 N 1015,5 20 47 0,0
19.07.2018 19:00:00 24,0 17,7 26,3 33,2 27,3 29 16 43 23 N 1015,3 20 54 0,0
19.07.2018 18:00:00 24,8 18,7 28,2 32,8 27,3 27 14 39 21 N 1015,6 20 42 0,0
19.07.2018 17:00:00 24,6 19,7 28,5 32,2 27,4 24 13 30 16 NNW 1015,5 20 25 0,0
19.07.2018 16:00:00 25,8 20,8 31,4 31,5 27,4 16 9 21 11 WNW 1015,3 20 54 0,0
19.07.2018 15:00:00 26,9 21,0 33,9 30,7 27,4 15 8 22 12 W 1015,4 20 54 0,0
19.07.2018 14:00:00 26,1 21,1 34,2 30,0 27,4 15 8 17 9 W 1015,6 19 56 0,0
19.07.2018 13:00:00 26,1 20,9 30,8 29,4 27,4 12 7 19 11 W 1015,7 18 55 0,0
19.07.2018 12:00:00 25,3 20,3 32,7 29,0 27,3 13 7 16 8 W 1015,9 20 56 0,0
19.07.2018 11:00:00 26,2 19,3 31,0 28,9 27,4 6 4 16 9 W 1015,8 20 60 0,0
19.07.2018 10:00:00 24,0 20,1 27,5 29,0 27,4 5 3 12 7 SSE 1016,0 20 60 0,0
19.07.2018 09:00:00 21,9 18,9 22,6 29,2 27,4 5 3 12 6 ESE 1016,0 20 55 0,0
19.07.2018 08:00:00 19,5 18,2 17,8 29,5 27,3 3 1 10 5 E 1016,0 20 18 0,0
19.07.2018 07:00:00 18,7 17,5 17,0 29,9 27,3 5 3 8 4 ESE 1015,6 16 0 0,0
19.07.2018 06:00:00 18,8 17,1 18,1 30,3 27,3 7 4 10 5 ENE 1015,2 19 0 0,0
19.07.2018 05:00:00 19,6 17,7 18,4 30,6 27,3 4 2 12 6 NE 1015,4 9 0 0,0
19.07.2018 04:00:00 20,4 18,2 19,8 31,0 27,3 6 4 13 7 ENE 1015,5 20 0 0,0
19.07.2018 03:00:00 20,8 18,6 20,1 31,3 27,3 8 4 12 7 NE 1016,0 20 0 0,0
19.07.2018 02:00:00 21,4 18,8 20,5 31,7 27,3 3 2 20 11 E 1016,4 5 0 0,0
19.07.2018 01:00:00 22,3 18,7 22,0 32,1 27,3 13 7 22 12 ENE 1016,0 20 0 0,0
19.07.2018 00:00:00 22,6 19,6 22,1 32,4 27,3 13 7 22 12 ENE 1016,1 20 0 0,0
18.07.2018 23:00:00 22,8 19,2 22,3 32,7 27,3 9 5 24 13 NE 1016,1 20 0 0,0
18.07.2018 22:00:00 23,5 19,2 23,1 32,8 27,3 18 10 26 14 N 1015,9 9 4 0,0
18.07.2018 21:00:00 25,0 19,1 25,8 32,8 27,3 19 10 37 20 N 1015,2 13 60 0,0
18.07.2018 20:00:00 27,1 18,9 29,6 32,8 27,3 23 12 43 23 N 1014,5 20 45 0,0
18.07.2018 19:00:00 27,7 19,0 29,2 32,6 27,3 14 7 47 26 ENE 1013,8 20 13 0,0
18.07.2018 18:00:00 28,1 19,1 30,7 32,3 27,3 26 14 44 24 ENE 1013,4 20 33 0,0
18.07.2018 17:00:00 26,9 17,4 28,8 31,8 27,3 16 8 57 31 NNE 1014,0 20 23 0,0
18.07.2018 16:00:00 24,9 19,0 28,5 31,1 27,4 37 20 51 28 N 1014,9 20 23 0,0
18.07.2018 15:00:00 31,4 14,5 32,4 30,3 27,4 21 11 33 18 NNW 1014,0 20 39 0,0
18.07.2018 14:00:00 29,6 14,2 33,4 29,6 27,4 11 6 34 19 E 1013,9 20 46 0,0
18.07.2018 13:00:00 28,8 15,7 34,6 29,0 27,4 16 9 34 18 NE 1014,1 20 60 0,0
18.07.2018 12:00:00 27,6 16,9 31,8 28,6 27,4 15 8 28 15 ENE 1014,7 20 60 0,0
18.07.2018 11:00:00 25,4 17,3 28,9 28,4 27,4 9 5 25 14 E 1015,2 20 55 0,0
18.07.2018 10:00:00 23,1 16,9 25,9 28,5 27,4 13 7 29 15 ENE 1015,2 20 60 0,0
18.07.2018 09:00:00 20,7 16,7 19,4 28,8 27,4 17 9 33 18 E 1015,7 20 35 0,0
18.07.2018 08:00:00 19,0 16,0 18,3 29,2 27,4 17 9 31 17 ENE 1015,5 20 28 0,0
18.07.2018 07:00:00 18,2 15,4 18,1 29,6 27,4 16 9 31 17 ENE 1016,1 20 0 0,0
18.07.2018 06:00:00 18,6 15,5 18,4 29,9 27,4 18 10 36 19 ENE 1016,2 20 0 0,0
18.07.2018 05:00:00 19,0 15,9 18,8 30,3 27,4 17 9 30 16 ENE 1016,1 20 0 0,0
18.07.2018 04:00:00 19,3 16,1 19,1 30,7 27,4 16 9 31 17 ENE 1016,8 20 0 0,0
18.07.2018 03:00:00 19,6 16,2 19,2 31,1 27,3 11 6 25 13 NE 1017,2 20 0 0,0
18.07.2018 02:00:00 19,9 16,5 19,5 31,5 27,4 10 5 21 11 NE 1017,7 20 0 0,0
18.07.2018 01:00:00 20,3 17,7 19,5 31,9 27,4 8 4 16 9 NNE 1018,1 20 0 0,0
18.07.2018 00:00:00 20,1 17,1 19,6 32,3 27,3 9 5 15 8 NNE 1018,2 20 0 0,0
17.07.2018 23:00:00 20,5 17,1 19,8 32,7 27,4 8 5 26 14 NNE 1018,1 20 0 0,0
17.07.2018 22:00:00 21,1 17,3 20,6 32,9 27,4 16 8 30 16 N 1017,9 20 20 0,0
17.07.2018 21:00:00 22,4 17,1 23,3 33,0 27,4 20 11 26 14 N 1017,9 20 60 0,0
17.07.2018 20:00:00 24,2 16,7 27,5 32,8 27,4 16 9 24 13 N 1018,0 20 60 0,0
17.07.2018 19:00:00 25,0 17,0 30,7 32,5 27,4 19 10 24 13 N 1018,1 20 60 0,0
17.07.2018 18:00:00 24,9 17,1 31,4 31,9 27,4 16 9 29 16 N 1018,8 20 60 0,0
17.07.2018 17:00:00 24,6 18,1 31,9 31,2 27,5 23 13 31 17 N 1019,1 20 60 0,0
17.07.2018 16:00:00 25,0 18,4 32,9 30,4 27,5 18 10 22 12 WNW 1019,5 20 60 0,0
17.07.2018 15:00:00 24,9 17,9 33,6 29,6 27,5 18 10 22 12 W 1019,7 20 60 0,0
17.07.2018 14:00:00 25,0 17,7 34,2 28,9 27,5 14 7 16 9 WSW 1020,0 20 60 0,0
17.07.2018 13:00:00 24,7 18,9 25,8 28,4 27,5 12 6 16 9 SW 1020,1 20 47 0,0
17.07.2018 12:00:00 24,1 18,5 23,4 28,1 27,5 12 6 14 8 WSW 1020,4 20 21 0,0
17.07.2018 11:00:00 22,6 17,3 23,8 28,0 27,5 8 4 16 9 SW 1020,5 20 25 0,0
17.07.2018 10:00:00 23,2 17,2 27,2 28,0 27,6 7 4 15 8 SE 1020,5 20 60 0,0
17.07.2018 09:00:00 21,1 19,0 19,7 28,2 27,6 7 4 12 7 SE 1020,6 20 21 0,0
17.07.2018 08:00:00 19,2 17,7 18,0 28,5 27,6 5 3 9 5 ENE 1020,4 20 25 0,0
17.07.2018 07:00:00 18,5 17,0 18,0 28,8 27,6 6 3 8 4 ESE 1020,3 20 0 0,0
17.07.2018 06:00:00 19,1 17,2 18,1 29,1 27,6 5 3 16 8 ESE 1020,2 20 0 0,0
17.07.2018 05:00:00 19,8 17,6 18,9 29,4 27,6 9 5 18 10 WNW 1020,3 16 0 0,0
17.07.2018 04:00:00 20,5 17,3 19,0 29,7 27,6 9 5 17 9 WNW 1020,4 18 0 0,0
17.07.2018 03:00:00 20,9 17,7 20,1 30,0 27,6 15 8 23 12 WNW 1020,5 17 0 0,0
17.07.2018 02:00:00 21,0 17,6 20,1 30,4 27,6 19 11 26 14 W 1020,8 20 0 0,0
17.07.2018 01:00:00 21,3 17,7 19,7 30,7 27,6 20 11 26 14 W 1021,1 20 0 0,0
17.07.2018 00:00:00 20,8 16,6 19,7 31,1 27,6 16 9 24 13 WNW 1021,1 20 0 0,0
16.07.2018 23:00:00 21,1 16,5 20,1 31,5 27,6 20 11 28 15 WNW 1020,9 20 0 0,0
16.07.2018 22:00:00 21,3 16,7 20,4 31,7 27,6 23 12 33 18 WNW 1020,4 20 21 0,0
16.07.2018 21:00:00 22,0 17,1 22,3 31,9 27,6 29 16 38 20 WNW 1020,1 20 60 0,0
16.07.2018 20:00:00 22,8 17,3 24,3 31,9 27,6 31 17 37 20 WNW 1019,4 20 38 0,0
16.07.2018 19:00:00 23,3 17,5 27,3 31,7 27,6 27 15 37 20 NW 1019,1 20 60 0,0
16.07.2018 18:00:00 23,4 17,2 28,1 31,5 27,6 33 18 41 22 NW 1019,1 20 60 0,0
16.07.2018 17:00:00 23,7 17,7 25,9 31,2 27,6 32 18 41 22 NW 1018,7 20 43 0,0
16.07.2018 16:00:00 24,3 18,5 28,9 30,8 27,6 32 17 42 23 NW 1018,5 20 57 0,0
16.07.2018 15:00:00 24,2 19,7 28,4 30,5 27,6 31 17 41 22 NW 1018,1 20 55 0,0
16.07.2018 14:00:00 24,3 19,4 28,0 30,2 27,6 29 16 36 19 NW 1017,6 20 53 0,0
16.07.2018 13:00:00 24,0 19,9 29,2 30,1 27,6 26 14 33 18 NW 1017,4 19 53 0,0
16.07.2018 12:00:00 23,9 20,8 27,9 30,1 27,6 21 11 27 15 NW 1017,1 19 60 0,0
16.07.2018 11:00:00 23,0 21,3 21,5 30,5 27,6 24 13 30 16 NNW 1016,4 17 9 0,0
16.07.2018 10:00:00 21,5 20,1 20,1 30,9 27,6 19 10 59 32 NNW 1015,9 12 0 7,2
16.07.2018 09:00:00 22,4 19,9 21,9 31,3 27,6 31 17 40 21 WNW 1015,2 18 0 0,0
16.07.2018 08:00:00 21,6 18,8 20,6 31,6 27,5 9 5 20 11 WNW 1014,8 20 0 0,0
16.07.2018 07:00:00 21,1 17,7 20,1 31,9 27,5 14 8 22 12 WNW 1014,5 20 0 0,0
16.07.2018 06:00:00 20,9 17,1 20,0 32,3 27,5 19 10 33 18 NW 1014,5 20 0 0,0
16.07.2018 05:00:00 20,9 17,3 19,1 32,7 27,5 24 13 33 18 WNW 1014,8 18 0 0,0
16.07.2018 04:00:00 20,4 15,4 19,9 33,1 27,4 3 2 12 6 S 1015,0 20 0 0,0
16.07.2018 03:00:00 21,4 15,7 21,3 33,5 27,4 4 2 29 16 NE 1015,4 20 0 0,0
16.07.2018 02:00:00 21,4 15,5 21,4 33,9 27,4 14 8 42 23 NNE 1014,8 20 0 0,0
16.07.2018 01:00:00 21,8 17,6 21,6 34,3 27,4 29 16 39 21 N 1015,4 20 0 0,0
16.07.2018 00:00:00 22,7 18,5 22,5 34,6 27,4 27 14 34 19 NNW 1015,1 20 0 0,0
15.07.2018 23:00:00 23,2 20,9 22,3 34,8 27,4 16 9 22 12 WNW 1015,3 18 0 0,0
15.07.2018 22:00:00 23,0 20,5 22,3 35,0 27,4 14 7 18 10 WNW 1014,3 17 22 0,0
15.07.2018 21:00:00 24,0 20,1 24,8 34,9 27,4 11 6 15 8 NW 1014,0 20 60 0,0
15.07.2018 20:00:00 25,5 20,1 27,9 34,6 27,3 11 6 13 7 WNW 1013,7 20 34 0,0
15.07.2018 19:00:00 26,3 19,4 30,2 34,3 27,4 7 4 9 5 W 1013,8 20 60 0,0
15.07.2018 18:00:00 27,8 20,1 33,8 33,8 27,4 9 5 14 8 W 1014,0 20 60 0,0
15.07.2018 17:00:00 27,3 20,4 35,1 33,1 27,4 12 7 18 10 WSW 1013,8 19 60 0,0
15.07.2018 16:00:00 28,1 21,4 35,9 32,4 27,3 15 8 18 10 SW 1013,9 19 60 0,0
15.07.2018 15:00:00 27,2 20,8 35,1 31,8 27,3 10 5 12 7 W 1014,2 18 60 0,0
15.07.2018 14:00:00 27,3 21,6 34,5 31,2 27,3 9 5 11 6 W 1014,4 15 60 0,0
15.07.2018 13:00:00 26,1 20,7 32,8 30,7 27,3 9 5 13 7 W 1014,8 16 49 0,0
15.07.2018 12:00:00 27,1 20,7 32,4 30,5 27,3 7 4 10 6 WSW 1014,6 19 52 0,0
15.07.2018 11:00:00 26,9 20,7 33,3 30,5 27,3 6 3 8 5 WNW 1014,5 17 60 0,0
15.07.2018 10:00:00 25,7 20,3 23,9 30,6 27,3 5 3 10 5 NW 1014,8 18 45 0,0
15.07.2018 09:00:00 22,6 19,9 23,3 30,9 27,3 4 2 10 5 E 1014,8 18 0 0,0
15.07.2018 08:00:00 22,7 19,7 20,1 31,2 27,2 6 4 11 6 E 1014,3 20 36 0,0
15.07.2018 07:00:00 19,8 16,8 19,6 31,6 27,2 6 3 12 7 SE 1014,6 20 1 0,0
15.07.2018 06:00:00 20,8 16,8 19,4 31,9 27,2 8 4 15 8 NE 1014,1 20 0 0,0
15.07.2018 05:00:00 22,1 17,0 20,3 32,3 27,2 8 4 10 5 NE 1014,0 20 0 0,0
15.07.2018 04:00:00 23,1 16,6 22,0 32,6 27,2 5 3 15 8 E 1014,7 20 0 0,0
15.07.2018 03:00:00 23,7 16,5 23,4 33,0 27,2 14 7 29 16 SSE 1015,2 20 0 0,0
15.07.2018 02:00:00 24,4 15,6 23,9 33,3 27,1 15 8 29 16 ENE 1014,9 20 0 0,0
15.07.2018 01:00:00 24,5 16,5 23,9 33,7 27,1 11 6 24 13 ENE 1015,1 20 0 0,0
15.07.2018 00:00:00 24,6 17,3 22,6 34,0 27,1 8 4 15 8 NE 1015,5 20 0 0,0
14.07.2018 23:00:00 23,6 16,6 22,5 34,2 27,1 6 4 15 8 NNE 1015,3 20 0 0,0
14.07.2018 22:00:00 23,2 17,2 22,6 34,4 27,1 14 7 26 14 N 1015,1 20 22 0,0
14.07.2018 21:00:00 24,6 17,1 25,5 34,4 27,1 20 11 29 16 N 1014,6 20 60 0,0
14.07.2018 20:00:00 25,4 17,3 28,4 34,2 27,1 19 11 27 14 N 1014,7 20 60 0,0
14.07.2018 19:00:00 26,5 17,3 31,5 33,8 27,1 13 7 19 11 N 1015,0 20 60 0,0
14.07.2018 18:00:00 27,1 17,3 33,0 33,3 27,1 11 6 20 11 NNW 1015,4 20 60 0,0
14.07.2018 17:00:00 26,6 18,5 33,8 32,7 27,1 14 7 21 11 NNW 1015,7 20 60 0,0
14.07.2018 16:00:00 28,1 16,7 35,2 32,0 27,1 14 8 19 11 N 1016,0 20 60 0,0
14.07.2018 15:00:00 26,5 17,6 34,9 31,3 27,1 8 5 18 10 NW 1016,3 20 60 0,0
14.07.2018 14:00:00 26,7 17,2 34,4 30,7 27,1 15 8 20 11 NNW 1016,7 20 60 0,0
14.07.2018 13:00:00 28,1 18,2 34,8 30,2 27,1 11 6 22 12 W 1016,8 20 60 0,0
14.07.2018 12:00:00 26,9 16,2 34,0 29,9 27,1 15 8 22 12 N 1017,2 20 60 0,0
14.07.2018 11:00:00 25,7 16,3 33,7 29,8 27,1 15 8 21 11 N 1017,3 20 60 0,0
14.07.2018 10:00:00 26,8 17,8 27,3 29,9 27,1 11 6 14 7 N 1017,0 20 32 0,0
14.07.2018 09:00:00 23,9 17,2 23,1 30,2 27,1 6 4 10 5 E 1016,9 20 8 0,0
14.07.2018 08:00:00 22,2 15,8 21,2 30,4 27,1 5 3 10 6 E 1016,8 20 0 0,0
14.07.2018 07:00:00 21,2 15,9 20,9 30,7 27,1 9 5 15 8 ESE 1016,9 20 0 0,0
14.07.2018 06:00:00 21,4 15,2 21,1 31,0 27,0 9 5 20 11 E 1016,6 20 0 0,0
14.07.2018 05:00:00 21,2 15,3 20,6 31,3 27,0 12 6 22 12 E 1017,1 20 0 0,0
14.07.2018 04:00:00 22,1 15,7 21,3 31,6 27,0 8 4 14 7 E 1017,5 20 0 0,0
14.07.2018 03:00:00 22,7 14,8 22,0 32,0 27,0 7 4 16 9 E 1018,1 20 0 0,0
14.07.2018 02:00:00 22,6 14,2 22,1 32,4 27,0 8 4 22 12 ENE 1018,1 20 0 0,0
14.07.2018 01:00:00 22,9 13,9 22,4 32,7 27,0 11 6 18 10 ENE 1018,1 20 0 0,0

tt = Température de l'air
td = dewpoint
tt 5cm = Température de l'air 5cm
tt -20cm = Température de l'air -20cm
tt -100cm = Température de l'air -100cm
ff = Vitesse du vent
fx = gusts
dd = Direction du vent
ppp = reduced air pressure
vv = visibility
sd = Ensoleillement
rr = Quantités de précipitations

stations d'obs. à proximité